Miscellaneous Local Product
Issued by NWS North Platte, NE

Home | Current Version | Previous Version | Text Only | Print | Product List | Glossary On
Versions: 1 2 3 4 5 6 7 8 9 10 11 12 13 14 15 16 17 18 19 20 21 22 23 24 25 26 27 28 29 30 31 32 33 34 35 36 37 38 39 40 41 42 43 44 45 46 47 48 49 50
000
AXUS43 KLBF 160310
MISLBF


WESTERN AND NORTH CENTRAL NEBRASKA HOURLY WEATHER ROUNDUP
NATIONAL WEATHER SERVICE NORTH PLATTE NE
900 PM CST FRI JAN 15 2021

NOTE: "FAIR" INDICATES FEW OR NO CLOUDS BELOW 12,000 FEET WITH NO
SIGNIFICANT WEATHER AND/OR OBSTRUCTIONS TO VISIBILITY.

NOTE: STATIONS NOT REPORTING SKY/WEATHER AND PRESSURE ARE
PROVIDED BY RAWS AND APRS NETWORKS AND ARE NOT UNDER NATIONAL
WEATHER SERVICE QUALITY CONTROL.

...OBSERVATIONS IN AND NEAR THE EASTERN PANHANDLE OF NEBRASKA...

CITY           SKY/WX    TMP DP  RH WIND       PRES   REMARKS
PINE RIDGE     MOCLDY    22  11  62 CALM      29.99F
GORDON         MOCLDY    20   9  62 CALM      30.00F
CHADRON        PTCLDY    26   4  38 CALM      30.01F
ALLIANCE       PTCLDY    23   5  46 N7        30.00F WCI  15
SIDNEY         PTCLDY    19   7  59 SW12      30.02F WCI   7
CRESCENT LAKE    N/A     25   7  45 N3G14       N/A
$$

...OBSERVATIONS IN NORTHERN NEBRASKA AND FAR SOUTHERN SOUTH DAKOTA...

CITY           SKY/WX    TMP DP  RH WIND       PRES   REMARKS
WINNER         PTCLDY    21  15  78 NW7       30.02F WCI  12
VALENTINE        N/A     22  14  71 NW5       30.01F WCI  16
AINSWORTH      CLEAR     21  15  80 W8        29.99F WCI  11
O`NEILL        CLOUDY    26  20  80 NW20      29.98F WCI  12
THEDFORD       PTCLDY    23  16  73 W9        30.01F WCI  13
BROKEN BOW     CLEAR     27  18  69 NW14      29.99F WCI  16
ORD            CLOUDY    29  20  69 NW14G24   29.98F WCI  18
ALBION         CLOUDY    28  22  76 N16G28    29.96F WCI  16
EWING            N/A     26  21  82 N12         N/A  WCI  16
CHAMBERS         N/A     25  20  79 NW3G14      N/A
BUTTE            N/A     22  18  85 N12         N/A  WCI  11
VALENTINE NWR    N/A     21  15  78 NW9         N/A  WCI  11
HALSEY           N/A     23  15  73 W7          N/A  WCI  15
$$

...OBSERVATIONS IN SOUTHWEST NEBRASKA AND FAR NORTHEAST COLORADO...

CITY           SKY/WX    TMP DP  RH WIND       PRES   REMARKS
WRAY           FAIR      27   7  43 CALM      30.06F
HOLYOKE        MOCLDY    32   7  34 NW13      30.04F
IMPERIAL       MOCLDY    30   8  39 NW12      30.05F
OGALLALA       MOCLDY    30  10  43 NW3       30.04F
NORTH PLATTE   PTCLDY    22  12  65 NW6       30.03F WCI  14
MCCOOK         PTCLDY    27  11  51 NW12      30.05F WCI  17
LEXINGTON      CLEAR     27  19  71 NW10      30.02F WCI  17
CALLAWAY         N/A     26  19  73 S8          N/A  WCI  18
STAPLETON        N/A     22  14  70 CALM        N/A
$$

...OBSERVATIONS IN CENTRAL LINCOLN COUNTY AREA...

CITY           SKY/WX    TMP DP  RH WIND       PRES   REMARKS
N.P. AIRPORT   PTCLDY    22  12  65 NW6       30.03F WCI  14
N.P. HILLCREST   N/A     26  15  63 NW12        N/A  WCI  16
N.P. DOWNTOWN    N/A     26  14  60 W3          N/A
N.P. SOUTHEAST   N/A     28  15  57 NW3         N/A
$$

...OBSERVATIONS ACROSS THE ROCKIES AND WESTERN HIGH PLAINS...

CITY           SKY/WX    TMP DP  RH WIND       PRES   REMARKS
SCOTTSBLUFF    CLEAR     30  12  47 W5        30.02F
KIMBALL        PTCLDY    20   9  63 NW8       30.02F WCI  10
CHEYENNE       PTCLDY    37  11  34 NW15G29   30.01F
DENVER         PTCLDY    26  11  52 S15       30.06F WCI  14
STEAMBOAT      FAIR      19   7  60 CALM      30.23F
COPPER MTN     CLEAR     19   3  49 SW10        N/A  WCI   8
LEADVILLE      CLEAR     16   2  54 NE10      30.23F WCI   4
ASPEN          CLEAR     20   6  55 S8        30.26F WCI  10
GUNNISON       CLEAR     22   8  55 CALM      30.27S
TELLURIDE      CLEAR     28   5  37 SE9       30.32F WCI  20
LARAMIE        PTCLDY    27  12  53 SW16      30.07F WCI  15
CASPER         PTCLDY    34  16  47 SW16      30.04F
SHERIDAN       CLOUDY    41  18  39 VRB5      29.99F
JACKSON        CLOUDY    18  11  74 NW7       30.26R WCI   9
YELLOWSTONE      N/A     16  13  88 CALM      30.24R
$$

...OBSERVATIONS ACROSS THE NORTHERN PLAINS...

CITY           SKY/WX    TMP DP  RH WIND       PRES   REMARKS
RAPID CITY     MOCLDY    20   5  52 CALM      29.99F
PIERRE         MOCLDY    19  14  81 N7        30.02F WCI  10
SIOUX FALLS    CLOUDY    28  22  78 N16G30    29.91S WCI  16
ABERDEEN       CLOUDY    26  18  71 N18G28    29.99F WCI  13
WILLISTON      FAIR      19  16  86 CALM      30.00S
DICKINSON      MOCLDY    16  11  80 S5        29.93F WCI   9
BISMARCK       CLOUDY    23  18  81 NW12      30.03F WCI  12
FARGO          CLOUDY    19  15  84 N20       29.98F WCI   3
GRAND FORKS    CLOUDY    16  11  80 N16       30.00F WCI   1
$$

...OBSERVATIONS ACROSS THE CENTRAL AND SOUTHERN PLAINS...

CITY           SKY/WX    TMP DP  RH WIND       PRES   REMARKS
GRAND ISLAND   CLOUDY    31  20  63 NW18G29   29.99S WCI  19
LINCOLN        CLOUDY    31  23  72 N21G33    29.94R WCI  18
OMAHA          FLURRIES  30  26  85 NW20G29   29.88R WCI  17
DES MOINES     DRIZZLE   34  31  88 N18G25    29.73R
KANSAS CITY    FLURRIES  32  29  88 NW14G24   29.83R
WICHITA        MOCLDY    35  21  56 N24G35    29.98S
DODGE CITY     CLOUDY    33  10  38 NW16      30.05R
OKLAHOMA CITY  PTCLDY    36  19  50 NW13      30.02R
DALLAS         CLEAR     42  15  33 NW7       30.04S
AMARILLO       CLOUDY    37  -1  20 NW14      30.12R BLWGDUST
$$




USA.gov is the U.S. government's official web portal to all federal, state and local government web resources and services.